SV1RVP-13 Weather Reports


Display with metric or nautical units.
time (UTC)temp
F
wind
direction
speed
MPH
gust
MPH
rain 1hr
in
rain 24hr
in
rain mn
in
humidity
%
barometer
mb
20260507181845 69 179 1.0 0.0 0.00 0.00 0.00 48 1017.7
20260507180845 69 79 2.0 0.0 0.00 0.00 0.00 48 1017.6
20260507175835 69 169 2.0 0.0 0.00 0.00 0.00 49 1017.7
20260507174838 69 242 3.0 0.0 0.00 0.00 0.00 49 1017.5
20260507173838 69 158 4.0 0.0 0.00 0.00 0.00 50 1017.4
20260507172828 70 186 3.0 0.0 0.00 0.00 0.00 49 1017.7
20260507171829 70 206 3.0 0.0 0.00 0.00 0.00 48 1017.7
20260507170852 71 266 3.0 0.0 0.00 0.00 0.00 45 1017.5
20260507165838 71 198 3.0 0.0 0.00 0.00 0.00 44 1017.2
20260507164845 72 146 3.0 0.0 0.00 0.00 0.00 43 1016.9
20260507163956 72 159 3.0 0.0 0.00 0.00 0.00 42 1017.0
20260507162837 72 109 2.0 0.0 0.00 0.00 0.00 42 1017.2
20260507161837 72 194 3.0 0.0 0.00 0.00 0.00 44 1017.1
20260507160827 72 234 2.0 0.0 0.00 0.00 0.00 44 1017.1
20260507155845 73 136 3.0 0.0 0.00 0.00 0.00 44 1017.1
20260507154828 73 162 3.0 0.0 0.00 0.00 0.00 43 1017.2
20260507153948 73 194 3.0 0.0 0.00 0.00 0.00 45 1017.2
20260507153852 73 194 3.0 0.0 0.00 0.00 0.00 45 1017.2
20260507153149 73 163 4.0 0.0 0.00 0.00 0.00 45 1017.4
20260507152843 73 163 4.0 0.0 0.00 0.00 0.00 45 1017.4
20260507152534 73 239 3.0 0.0 0.00 0.00 0.00 46 1017.6
20260507151841 73 239 3.0 0.0 0.00 0.00 0.00 46 1017.6
20260507150854 73 168 3.0 0.0 0.00 0.00 0.00 47 1017.5
20260507145853 73 127 3.0 0.0 0.00 0.00 0.00 47 1017.5
20260507144840 73 196 4.0 0.0 0.00 0.00 0.00 46 1017.5
20260507143829 74 193 4.0 0.0 0.00 0.00 0.00 46 1017.7
20260507142840 74 195 3.0 0.0 0.00 0.00 0.00 45 1017.6
20260507141845 74 246 4.0 0.0 0.00 0.00 0.00 44 1017.5
20260507140852 74 166 5.0 0.0 0.00 0.00 0.00 43 1017.4
20260507135857 75 169 4.0 0.0 0.00 0.00 0.00 43 1017.2
20260507134253 75 209 4.0 0.0 0.00 0.00 0.00 42 1017.3
20260507132943 76 189 5.0 0.0 0.00 0.00 0.00 40 1017.0
20260507131856 76 223 5.0 0.0 0.00 0.00 0.00 43 1017.0
20260507130837 75 194 3.0 0.0 0.00 0.00 0.00 44 1017.1
20260507125831 75 165 4.0 0.0 0.00 0.00 0.00 47 1017.2
20260507124849 75 148 3.0 0.0 0.00 0.00 0.00 47 1017.4
20260507123840 75 125 3.0 0.0 0.00 0.00 0.00 49 1017.5
20260507122841 75 140 3.0 0.0 0.00 0.00 0.00 49 1017.7
20260507121840 75 192 3.0 0.0 0.00 0.00 0.00 53 1017.8
20260507120850 75 224 4.0 0.0 0.00 0.00 0.00 50 1017.8
20260507115837 76 192 5.0 0.0 0.00 0.00 0.00 48 1017.8
20260507114843 76 186 3.0 0.0 0.00 0.00 0.00 51 1017.6
20260507113846 75 185 3.0 0.0 0.00 0.00 0.00 56 1017.9
20260507112835 73 161 5.0 0.0 0.00 0.00 0.00 62 1018.0
20260507111835 74 173 4.0 0.0 0.00 0.00 0.00 63 1018.0
20260507110852 73 173 4.0 0.0 0.00 0.00 0.00 62 1018.2
20260507105837 74 213 5.0 0.0 0.00 0.00 0.00 60 1018.0
20260507104836 75 209 5.0 0.0 0.00 0.00 0.00 58 1017.9
20260507103838 76 215 4.0 0.0 0.00 0.00 0.00 57 1017.9
20260507102827 76 159 3.0 0.0 0.00 0.00 0.00 58 1017.5
20260507101830 75 177 4.0 0.0 0.00 0.00 0.00 63 1017.4
20260507100844 74 35 3.0 0.0 0.00 0.00 0.00 66 1017.6
20260507095826 72 229 4.0 0.0 0.00 0.00 0.00 71 1017.6
20260507094830 72 182 3.0 0.0 0.00 0.00 0.00 70 1017.6
20260507093829 72 219 2.0 0.0 0.00 0.00 0.00 70 1017.6
20260507092849 73 175 3.0 0.0 0.00 0.00 0.00 66 1017.8
20260507091836 72 236 4.0 0.0 0.00 0.00 0.00 65 1017.7
20260507090830 73 250 3.0 0.0 0.00 0.00 0.00 65 1017.7
20260507085850 73 167 2.0 0.0 0.00 0.00 0.00 63 1017.5
20260507084843 72 178 2.0 0.0 0.00 0.00 0.00 62 1017.5
20260507083842 73 171 2.0 0.0 0.00 0.00 0.00 61 1017.7
20260507082841 72 196 2.0 0.0 0.00 0.00 0.00 62 1017.5
20260507081829 71 183 2.0 0.0 0.00 0.00 0.00 62 1017.5
20260507080845 71 221 2.0 0.0 0.00 0.00 0.00 60 1017.5
20260507075839 71 202 2.0 0.0 0.00 0.00 0.00 57 1017.5
20260507074837 71 256 2.0 0.0 0.00 0.00 0.00 60 1017.4
20260507073845 71 202 2.0 0.0 0.00 0.00 0.00 58 1017.5
20260507072831 70 247 2.0 0.0 0.00 0.00 0.00 57 1017.2
20260507071838 70 203 3.0 0.0 0.00 0.00 0.00 56 1017.3
20260507070857 70 215 2.0 0.0 0.00 0.00 0.00 56 1017.4
20260507065840 69 253 3.0 0.0 0.00 0.00 0.00 57 1017.5
20260507064841 69 202 3.0 0.0 0.00 0.00 0.00 61 1017.5
20260507063830 69 187 2.0 0.0 0.00 0.00 0.00 62 1017.5
20260507062829 69 185 3.0 0.0 0.00 0.00 0.00 61 1017.3
20260507061831 69 229 2.0 0.0 0.00 0.00 0.00 60 1017.3
20260507060850 69 168 2.0 0.0 0.00 0.00 0.00 60 1017.2
20260507055836 68 218 2.0 0.0 0.00 0.00 0.00 60 1017.2
20260507054837 68 212 2.0 0.0 0.00 0.00 0.00 61 1017.2
20260507053838 68 312 0.0 0.0 0.00 0.00 0.00 61 1016.8
20260507052827 67 312 1.0 0.0 0.00 0.00 0.00 62 1016.4
20260507051843 66 324 1.0 0.0 0.00 0.00 0.00 63 1016.4
20260507050845 66 321 1.0 0.0 0.00 0.00 0.00 63 1016.4
20260507045831 65 5 2.0 0.0 0.00 0.00 0.00 64 1016.4
20260507044831 64 355 2.0 0.0 0.00 0.00 0.00 64 1016.4
20260507043830 64 5 2.0 0.0 0.00 0.00 0.00 64 1016.3
20260507042851 64 5 2.0 0.0 0.00 0.00 0.00 65 1016.4
20260507041835 63 360 2.0 0.0 0.00 0.00 0.00 65 1016.4
20260507040834 63 5 2.0 0.0 0.00 0.00 0.00 66 1016.6
20260507035853 63 77 1.0 0.0 0.00 0.00 0.00 67 1016.6
20260507034843 63 9 2.0 0.0 0.00 0.00 0.00 67 1016.6
20260507033840 63 355 2.0 0.0 0.00 0.00 0.00 67 1016.6
20260507032839 63 315 2.0 0.0 0.00 0.00 0.00 67 1016.3
20260507031828 63 12 1.0 0.0 0.00 0.00 0.00 66 1016.3
20260507030829 63 62 0.0 0.0 0.00 0.00 0.00 66 1016.2
20260507025843 63 355 2.0 0.0 0.00 0.00 0.00 66 1016.2
20260507024832 64 126 0.0 0.0 0.00 0.00 0.00 66 1016.0
20260507023834 64 126 0.0 0.0 0.00 0.00 0.00 67 1016.1
20260507022835 63 126 0.0 0.0 0.00 0.00 0.00 67 1016.1
20260507021850 63 126 0.0 0.0 0.00 0.00 0.00 67 1016.0
20260507020837 64 126 0.0 0.0 0.00 0.00 0.00 66 1016.0
20260507015831 64 126 0.0 0.0 0.00 0.00 0.00 65 1016.1
20260507014851 64 319 0.0 0.0 0.00 0.00 0.00 64 1016.1
20260507013843 64 319 0.0 0.0 0.00 0.00 0.00 64 1016.1
20260507012838 64 319 0.0 0.0 0.00 0.00 0.00 63 1015.8
20260507011842 64 319 0.0 0.0 0.00 0.00 0.00 62 1015.7
20260507010833 64 319 0.0 0.0 0.00 0.00 0.00 62 1015.4
20260507005827 64 319 0.0 0.0 0.00 0.00 0.00 59 1015.4
20260507004829 64 319 0.0 0.0 0.00 0.00 0.00 59 1015.3
20260507003839 65 319 1.0 0.0 0.00 0.00 0.00 59 1015.4
20260507002835 65 360 1.0 0.0 0.00 0.00 0.00 60 1015.2
20260507001837 65 360 0.0 0.0 0.00 0.00 0.00 62 1015.1
20260507000844 65 360 0.0 0.0 0.00 0.00 0.00 63 1015.4
20260506235837 65 360 0.0 0.0 0.00 0.00 0.00 63 1015.5
20260506234839 65 360 0.0 0.0 0.00 0.00 0.00 63 1015.7
20260506233831 65 360 0.0 0.0 0.00 0.00 0.00 63 1015.7
20260506232828 66 360 1.0 0.0 0.00 0.00 0.00 62 1015.9
20260506231828 66 360 1.0 0.0 0.00 0.00 0.00 62 1016.0
20260506230836 66 315 1.0 0.0 0.00 0.00 0.00 64 1016.0
20260506225829 66 294 1.0 0.0 0.00 0.00 0.00 63 1016.1
20260506224830 66 177 0.0 0.0 0.00 0.00 0.00 63 1016.0
20260506223849 66 177 0.0 0.0 0.00 0.00 0.00 63 1016.1
20260506222833 66 177 0.0 0.0 0.00 0.00 0.00 62 1016.1
20260506221832 66 177 0.0 0.0 0.00 0.00 0.00 61 1016.3
20260506220852 66 177 0.0 0.0 0.00 0.00 0.00 59 1016.2
20260506215845 67 177 0.0 0.0 0.00 0.00 0.00 61 1016.2
20260506214835 67 177 0.0 0.0 0.00 0.00 0.00 61 1016.3
20260506213836 67 177 0.0 0.0 0.00 0.00 0.00 61 1016.2
20260506212830 67 239 0.0 0.0 0.00 0.00 0.00 60 1016.5
20260506211831 67 241 0.0 0.0 0.00 0.00 0.00 60 1016.5
20260506210853 67 242 0.0 0.0 0.00 0.00 0.00 60 1016.6
20260506205853 67 242 0.0 0.0 0.00 0.00 0.00 59 1016.7
20260506204842 67 242 0.0 0.0 0.00 0.00 0.00 59 1016.7
20260506203843 67 244 2.0 0.0 0.00 0.00 0.00 58 1016.8
20260506202831 68 243 1.0 0.0 0.00 0.00 0.00 58 1016.7
20260506201833 68 241 1.0 0.0 0.00 0.00 0.00 56 1016.7
20260506200850 68 253 1.0 0.0 0.00 0.00 0.00 54 1016.6
20260506195846 69 245 1.0 0.0 0.00 0.00 0.00 52 1016.5
20260506194834 69 249 1.0 0.0 0.00 0.00 0.00 49 1016.5
20260506193834 70 244 1.0 0.0 0.00 0.00 0.00 46 1016.3
20260506192848 70 198 1.0 0.0 0.00 0.00 0.00 45 1016.2
20260506191845 70 198 0.0 0.0 0.00 0.00 0.00 44 1015.9
20260506190832 70 198 0.0 0.0 0.00 0.00 0.00 43 1015.9
20260506185844 71 198 0.0 0.0 0.00 0.00 0.00 43 1015.8
20260506184843 71 198 1.0 0.0 0.00 0.00 0.00 43 1015.8
20260506183832 71 190 1.0 0.0 0.00 0.00 0.00 42 1015.6
20260506182835 71 180 1.0 0.0 0.00 0.00 0.00 42 1015.6